Flag for U.S.A. Weather past 2 weeks in Mesquite, Texas, U.S.A.

Now
79 °F

Sunny.


Feels Like: 80 °F
Forecast: 71 / 94 °F
Wind: 5 mph from East

Location: Mesquite Metro Airport

Current Time: Aug 1, 2015 at 9:11:28 AM

Latest Report: Aug 1, 2015 at 7:50 AM


Visibility: 10 mi

Pressure: 30.04 "Hg

Humidity: 58%

Dew point: 63 °F

Location of MesquiteLocation

Historic Weather in Mesquite — Graph

°F

Mesquite temperature yesterday

Maximum temperature yesterday: 97 °F (at 4:50 PM)
Minimum temperature yesterday: 77 °F (at 5:55 AM)
Average temperature yesterday: 85 °F

Past Weeks' High & Low Weather Summary

 TemperatureHumidityPressure
High100 °F (Jul 30, 3:50 PM)94% (Jul 18, 6:50 AM)30.10 "Hg (Jul 18, 6:50 AM)
Low73 °F (Aug 1, 5:15 AM)25% (Jul 30, 12:50 PM)29.81 "Hg (Jul 21, 6:50 PM)
Average84 °F61%29.95 "Hg
* Reported Jul 17 7:50 AM — Aug 1 7:50 AM, Mesquite, Weather by CustomWeather, © 2015

Note: Actual official high and low records may vary slightly from our data, if they occured in-between our weather recording intervals... More about our weather records

Advertising

Mesquite weather history for previous 24 hours

 ConditionsComfort  
Time TempWeatherWind HumidityBarometerVisibility
7:50 AM
Sat, Aug 1
79 °FSunny.5 mph58%30.04 "Hg10 mi
6:50 AM73 °FClear.3 mph65%30.03 "Hg10 mi
6:15 AM73 °FClear.3 mph69%30.03 "Hg10 mi
5:55 AM73 °FClear.No wind66%30.03 "Hg10 mi
5:35 AM73 °FClear.No wind66%30.03 "Hg10 mi
5:15 AM73 °FClear.No wind69%30.02 "Hg10 mi
4:55 AM73 °FClear.No wind68%30.03 "Hg10 mi
4:35 AM74 °FClear.No wind67%30.03 "Hg10 mi
4:15 AM74 °FClear.No wind67%30.03 "Hg10 mi
3:55 AM74 °FClear.3 mph68%30.03 "Hg10 mi
3:35 AM75 °FClear.No wind61%30.02 "Hg10 mi
3:15 AM75 °FClear.No wind60%30.02 "Hg10 mi
2:55 AM75 °FClear.No wind59%30.02 "Hg10 mi
2:35 AM75 °FClear.No wind59%30.02 "Hg10 mi
2:15 AM78 °FClear.No wind55%30.02 "Hg10 mi
1:55 AM79 °FClear.No wind50%30.02 "Hg10 mi
1:15 AM80 °FClear.No wind48%30.02 "Hg10 mi
12:55 AM81 °FClear.3 mph47%30.02 "Hg10 mi
12:35 AM82 °FClear.5 mph45%30.02 "Hg10 mi
12:15 AM82 °FClear.7 mph43%30.02 "Hg10 mi
11:55 PM
Fri, Jul 31
83 °FClear.7 mph40%30.02 "Hg10 mi
11:15 PM84 °FClear.8 mph36%30.03 "Hg10 mi
10:55 PM84 °FClear.9 mph36%30.03 "Hg10 mi
10:15 PM83 °FClear.5 mph41%30.04 "Hg10 mi
9:55 PM85 °FClear.No wind36%30.04 "Hg10 mi
9:35 PM86 °FClear.3 mph34%30.03 "Hg10 mi
9:15 PM86 °FSunny.3 mph34%30.03 "Hg10 mi
8:55 PM86 °FSunny.3 mph39%30.03 "Hg10 mi
8:35 PM88 °FSunny.No wind37%30.02 "Hg10 mi
8:15 PM88 °FSunny.6 mph36%30.01 "Hg10 mi
7:50 PM90 °FSunny.6 mph33%30.01 "Hg10 mi
6:50 PM93 °FSunny.8 mph36%29.99 "Hg10 mi
5:50 PM97 °FSunny.8 mph32%29.98 "Hg10 mi
4:50 PM97 °FSunny.10 mph34%30.00 "Hg10 mi
3:50 PM95 °FSunny.9 mph36%30.02 "Hg10 mi
2:50 PM93 °FSunny.8 mph39%30.05 "Hg10 mi
1:50 PM93 °FSunny.6 mph41%30.07 "Hg10 mi
12:50 PM93 °FSunny.7 mph41%30.08 "Hg10 mi
11:50 AM90 °FSunny.7 mph43%30.09 "Hg10 mi
10:50 AM88 °FSunny.7 mph46%30.09 "Hg10 mi
9:50 AM84 °FSunny.8 mph55%30.09 "Hg10 mi
Weather by CustomWeather, © 2015

See weather overviewHow to use our weather pages